Location: C�an Torras
(41.5052°N, 1.9280°E)
Time: 02:21:02
(UTC+00:00)

CZ-4 R/B - Visible Passes

Search period start: 13 May 2021 00:00
Search period end: 23 May 2021 00:00
Orbit: 531 x 598 km, 97.7° (Epoch: 12 May)

Date Brightness Start Highest point End Pass type
(mag) Time Alt. Az. Time Alt. Az. Time Alt. Az.
13 May 4.5 19:53:33 10° WSW 19:54:53 11° W 19:56:12 10° WNW visible
14 May 4.5 19:53:41 10° WSW 19:54:58 11° W 19:56:15 10° WNW visible
15 May 4.5 19:53:48 10° WSW 19:55:04 11° W 19:56:19 10° WNW visible
16 May 4.5 19:53:56 10° WSW 19:55:09 11° W 19:56:21 10° WNW visible
17 May 4.5 19:54:03 10° WSW 19:55:13 11° W 19:56:24 10° WNW visible
18 May 4.5 19:54:10 10° WSW 19:55:18 11° W 19:56:26 10° WNW visible
19 May 4.5 19:54:17 10° WSW 19:55:23 11° W 19:56:29 10° WNW visible
20 May 4.6 19:54:24 10° WSW 19:55:28 11° W 19:56:30 10° WNW visible
21 May 4.6 19:54:30 10° WSW 19:55:31 11° W 19:56:33 10° WNW visible
22 May 4.6 19:54:37 10° WSW 19:55:36 11° W 19:56:34 10° WNW visible
